TimeCDT,TemperatureF,Dew PointF,Humidity,Sea Level PressureIn,VisibilityMPH,Wind Direction,Wind SpeedMPH,Gust SpeedMPH,PrecipitationIn,Events,Conditions,WindDirDegrees,DateUTC
12:13 AM,42.8,41.0,93,29.74,1.2,NE,29.9,38.0,N/A,,Overcast,40,2013-05-20 05:13:00
12:33 AM,42.8,41.0,93,29.75,1.0,NE,25.3,32.2,N/A,,Overcast,40,2013-05-20 05:33:00
12:53 AM,42.8,41.0,93,29.75,1.2,NE,21.9,28.8,N/A,,Overcast,50,2013-05-20 05:53:00
1:13 AM,42.8,39.2,87,29.75,1.2,NE,26.5,32.2,N/A,,Overcast,40,2013-05-20 06:13:00
1:34 AM,42.8,41.0,93,29.75,1.8,NE,25.3,33.4,N/A,,Overcast,40,2013-05-20 06:34:00
1:53 AM,42.8,39.2,87,29.74,2.0,NE,23.0,27.6,N/A,Rain,Light Rain,40,2013-05-20 06:53:00
2:14 AM,42.8,39.2,87,29.72,7.0,NE,25.3,28.8,N/A,Rain,Light Rain,40,2013-05-20 07:14:00
2:33 AM,42.8,39.2,87,29.72,10.0,NE,27.6,32.2,N/A,Rain,Light Rain,50,2013-05-20 07:33:00
2:54 AM,42.8,39.2,87,29.69,10.0,NE,27.6,33.4,N/A,Rain,Light Rain,50,2013-05-20 07:54:00
3:13 AM,42.8,39.2,87,29.69,10.0,ENE,26.5,32.2,N/A,Rain,Light Rain,60,2013-05-20 08:13:00
3:34 AM,41.0,39.2,93,29.67,10.0,NE,27.6,-,N/A,Rain,Rain,50,2013-05-20 08:34:00
3:53 AM,41.0,39.2,93,29.65,10.0,NE,25.3,34.5,N/A,,Overcast,40,2013-05-20 08:53:00
4:13 AM,41.0,39.2,93,29.64,10.0,NE,28.8,33.4,N/A,Rain,Light Rain,40,2013-05-20 09:13:00
4:34 AM,41.0,39.2,93,29.65,10.0,NE,27.6,35.7,N/A,,Overcast,50,2013-05-20 09:34:00
4:53 AM,41.0,39.2,93,29.63,10.0,NE,29.9,35.7,N/A,,Drizzle,40,2013-05-20 09:53:00
5:13 AM,41.0,39.2,93,29.61,10.0,NE,27.6,35.7,N/A,Rain,Light Rain,40,2013-05-20 10:13:00
5:34 AM,41.0,39.2,93,29.63,10.0,NE,23.0,29.9,N/A,Rain,Rain,50,2013-05-20 10:34:00
5:53 AM,41.0,39.2,93,29.62,10.0,NE,23.0,34.5,N/A,,Light Drizzle,50,2013-05-20 10:53:00
6:13 AM,41.0,39.2,93,29.62,10.0,NE,25.3,29.9,N/A,Rain,Light Rain,50,2013-05-20 11:13:00
6:34 AM,41.0,39.2,93,29.63,5.0,NE,25.3,32.2,N/A,,Light Drizzle,50,2013-05-20 11:34:00
7:13 AM,41.0,39.2,93,29.65,2.0,NE,21.9,31.1,N/A,Rain,Light Rain,50,2013-05-20 12:13:00
7:34 AM,41.0,39.2,93,29.66,5.0,NE,23.0,31.1,N/A,Rain,Rain,50,2013-05-20 12:34:00
7:51 AM,41.0,39.2,93,29.67,5.0,NE,23.0,-,N/A,Rain,Light Rain,50,2013-05-20 12:51:00
8:21 AM,41.0,39.2,93,29.68,10.0,NE,21.9,27.6,N/A,,Overcast,50,2013-05-20 13:21:00
8:41 AM,41.0,39.2,93,29.67,10.0,NE,26.5,33.4,N/A,,Overcast,40,2013-05-20 13:41:00
9:01 AM,41.0,39.2,93,29.67,10.0,NE,21.9,-,N/A,,Overcast,40,2013-05-20 14:01:00
9:21 AM,41.0,39.2,93,29.67,10.0,NE,24.2,29.9,N/A,,Overcast,50,2013-05-20 14:21:00
9:41 AM,41.0,39.2,93,29.66,10.0,NE,25.3,28.8,N/A,,Overcast,50,2013-05-20 14:41:00
11:01 AM,39.2,39.2,100,29.68,5.0,NE,24.2,28.8,N/A,,Overcast,50,2013-05-20 16:01:00
11:21 AM,39.2,39.2,100,29.67,7.0,NE,24.2,31.1,N/A,,Overcast,40,2013-05-20 16:21:00
11:41 AM,39.2,37.4,93,29.67,7.0,NE,23.0,32.2,N/A,,Overcast,50,2013-05-20 16:41:00
12:01 PM,39.2,39.2,100,29.67,10.0,NE,19.6,-,N/A,,Overcast,50,2013-05-20 17:01:00
12:21 PM,39.2,39.2,100,29.68,7.0,NE,19.6,28.8,N/A,,Overcast,50,2013-05-20 17:21:00
12:41 PM,39.2,39.2,100,29.67,10.0,NE,23.0,31.1,N/A,,Overcast,50,2013-05-20 17:41:00
1:01 PM,39.2,37.4,93,29.67,7.0,NE,23.0,27.6,N/A,,Overcast,50,2013-05-20 18:01:00
1:21 PM,39.2,37.4,93,29.67,7.0,NE,24.2,32.2,N/A,,Overcast,40,2013-05-20 18:21:00
2:01 PM,39.2,39.2,100,29.68,1.2,NE,24.2,32.2,N/A,,Overcast,50,2013-05-20 19:01:00
2:21 PM,41.0,39.2,93,29.68,1.0,NE,26.5,32.2,N/A,,Overcast,40,2013-05-20 19:21:00
2:57 PM,41.0,39.2,93,29.68,0.5,NE,26.5,31.1,N/A,,Overcast,40,2013-05-20 19:57:00
3:01 PM,41.0,39.2,93,29.68,0.5,NE,27.6,32.2,N/A,,Overcast,40,2013-05-20 20:01:00
3:21 PM,41.0,39.2,93,29.69,0.5,NE,24.2,33.4,N/A,,Overcast,50,2013-05-20 20:21:00
3:41 PM,41.0,39.2,93,29.68,1.0,NE,26.5,32.2,N/A,,Overcast,50,2013-05-20 20:41:00
4:01 PM,41.0,39.2,93,29.68,1.0,NE,27.6,35.7,N/A,,Overcast,50,2013-05-20 21:01:00
4:21 PM,41.0,39.2,93,29.69,1.0,NE,27.6,34.5,N/A,,Overcast,50,2013-05-20 21:21:00
4:41 PM,41.0,39.2,93,29.69,1.8,NE,24.2,32.2,N/A,,Overcast,50,2013-05-20 21:41:00
5:04 PM,41.0,39.2,93,29.72,7.0,NE,23.0,26.5,N/A,,Overcast,50,2013-05-20 22:04:00
5:23 PM,41.0,39.2,93,29.72,2.5,ENE,24.2,31.1,N/A,,Overcast,60,2013-05-20 22:23:00
5:42 PM,41.0,39.2,93,29.72,1.8,ENE,27.6,-,N/A,,Overcast,60,2013-05-20 22:42:00
6:36 PM,39.2,39.2,100,29.71,10.0,NE,21.9,-,N/A,,Overcast,50,2013-05-20 23:36:00
6:51 PM,41.0,39.2,93,29.72,10.0,NE,18.4,-,N/A,,Overcast,40,2013-05-20 23:51:00
7:01 PM,41.0,39.2,93,29.72,10.0,NE,17.3,-,N/A,,Overcast,50,2013-05-21 00:01:00
7:32 PM,39.2,39.2,100,29.73,10.0,NE,18.4,-,N/A,,Overcast,40,2013-05-21 00:32:00
7:41 PM,39.2,39.2,100,29.72,10.0,NE,19.6,-,N/A,,Overcast,40,2013-05-21 00:41:00
8:01 PM,39.2,39.2,100,29.73,5.0,NE,20.7,-,N/A,,Overcast,40,2013-05-21 01:01:00
8:21 PM,39.2,39.2,100,29.73,10.0,NE,20.7,-,N/A,,Overcast,50,2013-05-21 01:21:00
8:41 PM,41.0,39.2,93,29.74,10.0,NE,18.4,24.2,N/A,,Overcast,50,2013-05-21 01:41:00
9:01 PM,39.2,39.2,100,29.76,10.0,NE,18.4,-,N/A,,Overcast,40,2013-05-21 02:01:00
9:21 PM,39.2,37.4,93,29.75,10.0,NE,19.6,-,N/A,,Overcast,40,2013-05-21 02:21:00
9:41 PM,39.2,37.4,93,29.76,10.0,NE,17.3,-,N/A,,Overcast,40,2013-05-21 02:41:00
10:42 PM,39.2,37.4,93,29.74,10.0,NE,21.9,-,N/A,,Overcast,50,2013-05-21 03:42:00
10:57 PM,39.2,37.4,93,29.75,10.0,NE,19.6,-,N/A,,Overcast,50,2013-05-21 03:57:00
11:01 PM,39.2,37.4,93,29.75,10.0,NE,19.6,-,N/A,,Overcast,50,2013-05-21 04:01:00
11:21 PM,39.2,37.4,93,29.75,10.0,NE,20.7,-,N/A,,Overcast,50,2013-05-21 04:21:00
11:41 PM,39.2,37.4,93,29.74,10.0,NE,20.7,-,N/A,,Overcast,40,2013-05-21 04:41:00